Volver al catálogo

ONEWEB-0292

ActivoComunicacionesPO
NORAD 49186·PAYLOAD·🇬🇧 United Kingdom

Lanzado Sep 14, 2021 desde Baikonur Cosmodrome

Loading…

Próximos Pases (próximas 24 horas)

TLE

ActualizadoSource: CelesTrak SupGP

Época: Sep 14, 2026, 20:00 UTC

1 49186C 21083A   26257.83352269 -.00000765  00000+0 -20986-2 0  2575
2 49186  87.8908 302.4013 0002036 101.0689 291.8008 13.13465852    16

Sigue ONEWEB-0292 en tiempo real con AllMySat

Download on the App Store